x

South Uist Range (03023) Weather Station

8:00 - Mon 20th Oct 2014 All times are BST. 1 hours from GMT.

  • Wind
    21mph, 29mph gusts
  • Luft Temp 52°f
  • Sea Pressure 1003mb
  • South Uist Range
  • South Uist Range

More Historic Weather Station data

Upgrade to MSW Pro to gain access to the past 30 days of data for over 8000 Wavebouys and Weather Stations around the globe.

Join Pro

Comparision Forecast

View Surf forecast
   
Mo 10/20 8:00 21 29 mph 1003mb 52f
7:00 19
mph
1003mb 52f
6:00 19
mph
1002mb 52f
5:00 19
mph
1003mb 51f
4:00 17
mph
1003mb 52f
3:00 18
mph
1003mb 53f
2:00 19
mph
1003mb 52f
1:00 19 36 mph 1003mb 52f
12:00 18
mph
1002mb 52f
So 10/19 11:00 21 33 mph 1002mb 52f
10:00 22 33 mph 1001mb 52f
9:00 26 37 mph 1001mb 53f
8:00 29 41 mph 1000mb 53f
7:00 29 41 mph 999mb 53f
6:00 30 46 mph 998mb 53f
5:00 30 45 mph 996mb 53f
4:00 31 44 mph 995mb 54f
3:00 33 44 mph 994mb 54f
2:00 31 44 mph 993mb 54f
1:00 30 41 mph 991mb 54f
12:00 30 39 mph 990mb 54f
11:00 29 38 mph 989mb 54f
10:00 28 40 mph 988mb 55f
9:00 29 40 mph 987mb 54f
8:00 30 39 mph 986mb 54f
7:00 28 39 mph 985mb 55f
6:00 30 40 mph 985mb 55f
5:00 30 44 mph 985mb 55f
4:00 32 46 mph 986mb 55f
3:00 34 45 mph 986mb 55f
2:00 33 49 mph 987mb 54f
1:00 31 44 mph 988mb 56f
12:00 30 41 mph 989mb 56f
Sa 10/18 11:00 25 43 mph 990mb 55f
10:00 25 38 mph 990mb 57f
9:00 25 34 mph 990mb 57f
8:00 24 32 mph 990mb 57f
7:00 23 36 mph 991mb 56f
6:00 26 34 mph 991mb 57f
5:00 25 36 mph 990mb 57f
4:00 25 41 mph 991mb 57f
3:00 29 41 mph 991mb 58f
2:00 31 41 mph 991mb 56f
1:00 31 41 mph 991mb 60f
12:00 28 39 mph 990mb 58f
11:00 26 36 mph 990mb 58f
10:00 24 33 mph 990mb 57f
9:00 23 33 mph 989mb 57f
8:00 24 34 mph 988mb 57f
7:00 24 33 mph 988mb 57f
6:00 26 38 mph 988mb 58f
5:00 25 39 mph 988mb 58f
4:00 22 30 mph 987mb 56f
3:00 19 56 mph 988mb 55f
2:00 37 57 mph 987mb 57f
1:00 37 59 mph 989mb 56f
12:00 43 62 mph 990mb 57f
Fr 10/17 11:00 34 49 mph 992mb 56f
10:00 30 47 mph 994mb 57f
9:00 33 53 mph 995mb 58f
8:00 33 46 mph 996mb 58f
7:00 31 44 mph 997mb 59f
6:00 26 37 mph 997mb 59f
5:00 24 34 mph 998mb 58f
4:00 22 36 mph 999mb 58f
3:00 22 29 mph 999mb 59f
2:00 19 29 mph 1000mb 59f
1:00 17
mph
1000mb 58f
12:00 15
mph
1000mb 58f
11:00 15
mph
999mb 57f
10:00 14
mph
999mb 57f
9:00 10
mph
998mb 55f
8:00 11
mph
998mb 55f
7:00 15
mph
997mb 54f
6:00 22 30 mph 996mb 54f
5:00 24 37 mph 996mb 54f
4:00 28 38 mph 996mb 56f
3:00 24 34 mph 996mb 56f
2:00 23 37 mph 996mb 56f
1:00 28 39 mph 995mb 56f
12:00 26 39 mph 996mb 55f
Do 10/16 11:00 24 33 mph 996mb 55f
10:00 24 32 mph 996mb 54f
9:00 24 33 mph 996mb 56f
8:00 24 43 mph 996mb 56f
7:00 28 37 mph 996mb 56f
6:00 24 39 mph 997mb 55f
5:00 29
mph
997mb 56f
4:00  -  mph 997mb 57f
3:00  -  mph 997mb 56f
2:00  -  mph 997mb 56f
1:00  -  mph 997mb 55f
12:00  -  31 mph 997mb 55f
11:00  -  30 mph 997mb 55f
10:00  -  30 mph 997mb 53f